星链-30966 (STARLINK-30966 )

导读

STARLINK-30966是美国SpaceX公司星链(Starlink)低轨宽带互联网星座的一员,于2023年11月28日发射入轨。它属于量产型通信卫星,采用平板设计与氪霍尔推进器,支持自主避撞,搭载Ku/Ka波段通信载荷,依托星链星座为全球偏远地区提供高速互联网接入,寿命末期会自主离轨再入大气层烧毁,降低空间碎片风险。

Basic Information
目录编号:
58454
目录名称:
STARLINK-30966
国际标识:
2023-183T
轨道中心:
EARTH
卫星名称:
星链-30966
卫星全名:
星链-30966 (STARLINK-30966 )
卫星状态:
在轨 (已飞行933 天)
发射日期:
2023-11-28 UTC
国别 :
美国 (US)
星等 :
--
Orbit Information
数据来源 国际轨道数据 AOE轨道数据
星历时间 2026-06-17T03:16:46+0800
1天前
查看轨道信息
2026-06-16T06:00:00+0800
2天前
查看轨道信息
半长轴 6861.189km 6861.222km
偏心率 0.0001178 0.0001227
轨道倾角 43.001° 43.000°
近地点辐角 277.790° 275.660°
升交点赤经 201.777° 206.788°
平近点角 82.282° 242.783°
近地点 482.243km 482.243km
远地点 483.861km 483.927km
周期 94.267分钟 94.267分钟
每日圈数 15.275793 15.275682
Detailed Information
固有亮度:
5
最大亮度:
0.3
卫星平台:
Starlink v2.0 mini
覆盖范围:
全球
运营商:
太空探索技术公司
运营商所在国:
美国
制造商(研发单位):
太空探索技术公司
制造商所在国:
美国
使用方式:
暂无
Satellite Introduction
星链(Starlink)计划是由太空探索技术公司(SpaceX)提出的一个巨型低轨卫星互联网星座项目,计划在2019年至2024年间在太空搭建由约1.2万颗卫星组成的“星链”网络,其中1584颗将部署在地球上空550千米处的近地轨道,并从2020年开始工作。该卫星仍在工作。
2D Orbit Map
3D Orbit Map
Orbit Altitude Analysis Chart
Orbit Inclination Analysis Chart
Orbit Comprehensive Analysis Chart
View Comprehensive Chart